Regional Weather Roundup
Issued by NWS

Home | Current Version | Previous Version | Text Only | Print | Product List | Glossary On
Versions: 1 2 3 4 5 6 7 8 9 10 11 12 13 14 15 16 17 18 19 20 21 22 23 24 25 26 27 28
000
ASUS46 KSEW 021910
RWRWA

WASHINGTON REGIONAL WEATHER ROUNDUP
NATIONAL WEATHER SERVICE SEATTLE WA
1100 AM PST FRI DEC 02 2016

NOTE:"FAIR" INDICATES FEW OR NO CLOUDS BELOW 12,000 FEET WITH NO
SIGNIFICANT WEATHER AND/OR OBSTRUCTIONS TO VISIBILITY.

WAZ507-509-555>559-022000-
SEATTLE, TACOMA, EVERETT, AND VICINITY

CITY           SKY/WX    TMP DP  RH WIND       PRES   REMARKS
EVERETT        CLOUDY    44  42  93 SE18G24   30.22F
BOEING FIELD   CLOUDY    46  44  93 SE13      30.24F
RENTON         CLOUDY    46  44  93 SE7       30.24F
SEATAC AIRPORT CLOUDY    45  43  93 SE14      30.23F
JBLM-MCCHORD   CLOUDY    46  46  99 S10       30.25F
PUYALLUP       CLOUDY    48  43  81 S8        30.25F
BREMERTON      CLOUDY    45  43  93 S17G23    30.26F
JBLM-FT LEWIS  CLOUDY    47  46  99 S17       30.23F
TACOMA NARROWS LGT RAIN  46  43  89 S17       30.24F
$$

WAZ001-503-506-510-514-515-022000-
NORTH INTERIOR

CITY           SKY/WX    TMP DP  RH WIND       PRES   REMARKS
BELLINGHAM     CLOUDY    48  42  80 SE21G33   30.13F
FRIDAY HARBOR  CLOUDY    49  43  80 SE21G31   30.13F
EASTSOUND      CLOUDY    46  45  93 S10G21    30.11F
PORT ANGELES   CLOUDY    47  43  86 E5        30.10F
EDIZ HOOK      CLOUDY    47  40  76 CALM      30.10F
PORT TOWNSEND    N/A     46  45  93 S10G25    30.14F
NAS WHIDBEY    CLOUDY    49  41  74 SE25      30.18F
ARLINGTON      CLOUDY    48  34  57 SE21G26   30.23F
BURLINGTON     CLOUDY    48  43  81 SE14G24   30.17
$$

WAZ020-022-039-040-504-511-512-022000-
SOUTHWEST INTERIOR

CITY           SKY/WX    TMP DP  RH WIND       PRES   REMARKS
SHELTON        CLOUDY    47  44  90 S6        30.21F
OLYMPIA        LGT RAIN  45  43  93 S16G26    30.26F
CHEHALIS       LGT RAIN  45  43  93 S16G24    30.29F
KELSO          LGT RAIN  45  42  89 SE15G22   30.34F
VANCOUVER      LGT RAIN  46  41  82 CALM      30.37S
SCAPPOOSE, OR  LGT RAIN  44  41  89 S6        30.35F
PORTLAND, OR   LGT RAIN  45  42  89 S5        30.38S
$$

WAZ021-516-517-022000-
WASHINGTON COAST

CITY           SKY/WX    TMP DP  RH WIND       PRES   REMARKS
FORKS          RAIN      49  48  97 S12G23    30.11F FOG
HOQUIAM        LGT RAIN  48  47  96 SE16      30.23F FOG
ASTORIA, OR    LGT RAIN  50  45  83 SE5       30.27S
$$

WAZ019-023-024-040-567>569-022000-
CASCADE MOUNTAINS AND COLUMBIA GORGE

CITY           SKY/WX    TMP DP  RH WIND       PRES   REMARKS
STAMPEDE PASS  LGT SNOW  32  32 100 CALM      30.18F VSB 3/4
TROUTDALE, OR  CLOUDY    47  42  83 CALM      30.37S
THE DALLES, OR PTSUNNY   42  35  76 CALM      30.37F
$$

WAZ026-027-041>044-520-521-022000-
EAST SLOPES

CITY           SKY/WX    TMP DP  RH WIND       PRES   REMARKS
OMAK           CLOUDY    32  30  93 S13       30.25F FOG     WCI  22
WENATCHEE      CLOUDY    33  30  88 SE10      30.27F WCI  25
ELLENSBURG     CLOUDY    36  30  79 CALM      30.27F
YAKIMA         CLOUDY    37  31  78 CALM      30.32F
$$

WAZ028-034-035-022000-
COLUMBIA BASIN

CITY           SKY/WX    TMP DP  RH WIND       PRES   REMARKS
EPHRATA        FRZ RAIN  32  28  85 NE6       30.29F
MOSES LAKE     CLOUDY    34  32  92 CALM      30.32F
PASCO          CLOUDY    46  35  65 S9        30.36F
HERMISTON, OR  PTSUNNY   42  33  70 NW3       30.35F
$$

WAZ036>038-022000-
NORTHEAST WASHINGTON

CITY           SKY/WX    TMP DP  RH WIND       PRES   REMARKS
SPOKANE GEIGER CLOUDY    33  31  92 S10       30.28F WCI  25
SPOKANE FELTS  CLOUDY    38  32  79 S6        30.31F
FAIRCHILD AFB  CLOUDY    32  32 100 S13       30.27F WCI  22
COEURDALENE,ID CLOUDY    36  33  89 S7        30.30F
DEER PARK      CLOUDY    33  31  92 S5        30.29F
$$

WAZ029>033-022000-
SOUTHEAST WASHINGTON

CITY           SKY/WX    TMP DP  RH WIND       PRES   REMARKS
PULLMAN        PTSUNNY   35  29  78 SE9       30.33S
LEWISTON, ID   PTSUNNY   34  31  88 N5        30.36F FOG
WALLA WALLA    CLOUDY    46  32  58 S13       30.33F
PENDLETON, OR  PTSUNNY   44  31  60 S7        30.33F
$$




USA.gov is the U.S. government's official web portal to all federal, state and local government web resources and services.